GW7732 Weather Reports


time (UTC)temp
C
wind
direction
speed
KPH
gust
KPH
rain 1hr
cm
rain 24hr
cm
rain mn
cm
humidity
%
barometer
mb
20260906093935 23 0.0 1.6 0.00 0.00 0.00 93 1011.1
20260906092736 23 8 0.0 1.6 0.00 0.00 0.00 93 1011.1
20260906091516 23 0.0 1.6 0.00 0.00 0.00 94 1011.0
20260906090315 23 0.0 1.6 0.00 0.00 0.00 93 1010.7
20260906085156 23 8 0.0 1.6 0.00 0.00 0.00 93 1010.8
20260906083916 23 8 0.0 1.6 0.00 0.00 0.00 93 1010.7
20260906082735 23 8 0.0 1.6 0.00 0.00 0.00 93 1010.6
20260906081515 23 8 1.6 1.6 0.00 0.00 0.00 93 1010.5
20260906080315 23 0.0 1.6 0.00 0.00 0.00 93 1010.5
20260906075115 23 8 1.6 3.2 0.00 0.00 0.00 92 1010.5
20260906073915 23 8 1.6 3.2 0.00 0.00 0.00 92 1010.6
20260906072715 23 8 1.6 3.2 0.00 0.00 0.00 91 1010.6
20260906071515 23 18 3.2 3.2 0.00 0.00 0.00 90 1010.7
20260906070315 23 18 1.6 3.2 0.00 0.00 0.00 89 1010.7
20260906065115 24 9 1.6 3.2 0.00 0.00 0.00 87 1010.8
20260906063915 24 9 1.6 3.2 0.00 0.00 0.00 86 1010.7
20260906062715 25 258 1.6 1.6 0.00 0.00 0.00 85 1010.6
20260906061535 25 258 1.6 3.2 0.00 0.00 0.00 84 1010.9
20260906060316 25 258 0.0 1.6 0.00 0.00 0.00 84 1011.2
20260906055115 25 258 0.0 3.2 0.00 0.00 0.00 83 1011.2
20260906053935 25 254 1.6 1.6 0.00 0.00 0.00 83 1011.4
20260906052715 25 248 0.0 1.6 0.00 0.00 0.00 82 1011.5
20260906051535 25 249 1.6 3.2 0.00 0.00 0.00 80 1011.4
20260906050315 25 354 0.0 1.6 0.00 0.00 0.00 80 1011.5
20260906045115 26 354 1.6 3.2 0.00 0.00 0.00 78 1011.7
20260906043935 26 137 1.6 4.8 0.00 0.00 0.00 76 1011.5
20260906042715 26 196 1.6 4.8 0.00 0.00 0.00 76 1011.4
20260906041515 26 190 3.2 4.8 0.00 0.00 0.00 76 1011.4
20260906040315 26 4 0.0 1.6 0.00 0.00 0.00 77 1011.9
20260906035115 26 4 0.0 1.6 0.00 0.00 0.00 77 1012.1
20260906033935 26 82 1.6 1.6 0.00 0.00 0.00 78 1012.2
20260906032715 26 11 0.0 3.2 0.00 0.00 0.00 77 1012.0
20260906031515 26 54 1.6 3.2 0.00 0.00 0.00 75 1011.9
20260906030315 26 91 1.6 4.8 0.00 0.00 0.00 74 1012.0
20260906025115 26 121 1.6 3.2 0.00 0.00 0.00 74 1011.8
20260906023915 26 114 0.0 1.6 0.00 0.00 0.00 75 1011.8
20260906022715 26 0.0 0.0 0.00 0.00 0.00 75 1012.0
20260906021515 26 0.0 1.6 0.00 0.00 0.00 75 1012.0
20260906020315 26 77 0.0 1.6 0.00 0.00 0.00 76 1011.9
20260906015115 27 74 0.0 3.2 0.00 0.00 0.00 76 1011.7
20260906013915 27 73 1.6 1.6 0.00 0.00 0.00 76 1011.6
20260906012715 27 73 1.6 3.2 0.00 0.00 0.00 75 1011.5
20260906011515 27 179 3.2 6.4 0.00 0.00 0.00 74 1011.5
20260906010315 27 261 1.6 1.6 0.00 0.00 0.00 73 1011.4
20260906005115 27 53 0.0 3.2 0.00 0.00 0.00 73 1011.0
20260906003915 28 359 1.6 3.2 0.00 0.00 0.00 71 1010.9
20260906002715 28 22 1.6 3.2 0.00 0.00 0.00 70 1010.6
20260906001515 29 354 1.6 3.2 0.00 0.00 0.00 66 1010.3
20260906000335 29 315 1.6 3.2 0.00 0.00 0.00 64 1010.5
20260905235135 30 315 0.0 3.2 0.00 0.00 0.00 63 1010.4
20260905233915 30 289 3.2 4.8 0.00 0.00 0.00 61 1010.7
20260905232715 30 163 1.6 4.8 0.00 0.00 0.00 59 1010.7
20260905231514 31 92 3.2 9.7 0.00 0.00 0.00 58 1010.6
20260905230315 31 324 1.6 3.2 0.00 0.00 0.00 58 1010.9
20260905225115 32 76 4.8 12.9 0.00 0.00 0.00 56 1010.6
20260905223915 34 19 3.2 4.8 0.00 0.00 0.00 50 1010.4
20260905222715 36 11 1.6 3.2 0.00 0.00 0.00 43 1009.9
20260905221537 37 3 0.0 3.2 0.00 0.00 0.00 40 1009.9
20260905220337 37 354 1.6 3.2 0.00 0.00 0.00 40 1009.8
20260905215117 38 248 1.6 4.8 0.00 0.00 0.00 40 1009.5
20260905213917 38 272 1.6 3.2 0.00 0.00 0.00 38 1009.6
20260905212716 37 349 1.6 4.8 0.00 0.00 0.00 39 1009.7
20260905211517 37 32 1.6 3.2 0.00 0.00 0.00 37 1010.0
20260905210316 37 346 1.6 6.4 0.00 0.00 0.00 38 1010.1
20260905205136 37 316 1.6 4.8 0.00 0.00 0.00 38 1010.0
20260905203917 36 261 3.2 9.7 0.00 0.00 0.00 43 1010.0
20260905202716 36 176 6.4 11.3 0.00 0.00 0.00 44 1010.0
20260905201537 36 183 1.6 6.4 0.00 0.00 0.00 44 1010.1
20260905200316 36 204 3.2 12.9 0.00 0.00 0.00 46 1010.4
20260905195157 36 39 1.6 3.2 0.00 0.00 0.00 48 1010.6
20260905193916 35 152 3.2 6.4 0.00 0.00 0.00 50 1010.7
20260905192716 35 4 0.0 4.8 0.00 0.00 0.00 49 1010.7
20260905191516 36 338 1.6 4.8 0.00 0.00 0.00 49 1010.9
20260905190336 36 88 3.2 6.4 0.00 0.00 0.00 50 1011.1
20260905185116 36 178 4.8 9.7 0.00 0.00 0.00 49 1011.2
20260905183916 36 336 1.6 4.8 0.00 0.00 0.00 50 1011.4
20260905182716 36 342 3.2 11.3 0.00 0.00 0.00 50 1011.6
20260905181516 35 28 3.2 6.4 0.00 0.00 0.00 52 1011.7
20260905180316 35 339 1.6 3.2 0.00 0.00 0.00 54 1011.9
20260905175116 34 313 1.6 3.2 0.00 0.00 0.00 54 1012.1
20260905173916 35 296 3.2 6.4 0.00 0.00 0.00 51 1012.2
20260905172756 35 326 1.6 4.8 0.00 0.00 0.00 53 1012.4
20260905171516 34 181 4.8 8.0 0.00 0.00 0.00 54 1012.5
20260905170336 33 97 3.2 6.4 0.00 0.00 0.00 54 1012.7
20260905165156 33 282 3.2 4.8 0.00 0.00 0.00 58 1012.9
20260905163916 33 329 1.6 4.8 0.00 0.00 0.00 58 1013.2
20260905162716 33 32 1.6 6.4 0.00 0.00 0.00 59 1013.5
20260905161536 33 175 4.8 9.7 0.00 0.00 0.00 58 1013.6
20260905160338 33 6 1.6 4.8 0.00 0.00 0.00 58 1013.7
20260905155136 32 348 1.6 4.8 0.00 0.00 0.00 62 1013.8
20260905153916 32 289 3.2 6.4 0.00 0.00 0.00 62 1013.8
20260905152716 32 73 1.6 4.8 0.00 0.00 0.00 65 1013.9
20260905151516 32 104 3.2 6.4 0.00 0.00 0.00 65 1014.0
20260905150315 31 308 3.2 4.8 0.00 0.00 0.00 66 1014.2
20260905145116 31 258 3.2 6.4 0.00 0.00 0.00 67 1014.3
20260905143956 31 347 1.6 4.8 0.00 0.00 0.00 70 1014.4
20260905142716 31 314 1.6 6.4 0.00 0.00 0.00 72 1014.4
20260905141516 30 292 1.6 3.2 0.00 0.00 0.00 73 1014.4
20260905140336 29 334 0.0 3.2 0.00 0.00 0.00 77 1014.4
20260905135116 28 354 0.0 3.2 0.00 0.00 0.00 83 1014.5
20260905133916 26 45 0.0 1.6 0.00 0.00 0.00 89 1014.5
20260905132756 25 348 1.6 4.8 0.00 0.00 0.00 94 1014.5
20260905131516 24 303 1.6 3.2 0.00 0.00 0.00 96 1014.5
20260905130315 23 234 1.6 3.2 0.00 0.00 0.00 96 1014.6
20260905125116 23 197 3.2 6.4 0.00 0.00 0.00 96 1014.6
20260905123916 23 202 4.8 8.0 0.00 0.00 0.00 96 1014.5
20260905122735 22 209 4.8 6.4 0.00 0.00 0.00 96 1014.4
20260905121515 22 182 4.8 9.7 0.00 0.00 0.00 96 1014.5
20260905120315 22 209 3.2 4.8 0.00 0.00 0.00 96 1014.3
20260905115115 22 209 1.6 3.2 0.00 0.00 0.00 96 1014.3
20260905113955 22 209 1.6 3.2 0.00 0.00 0.00 96 1014.1
20260905112755 22 210 0.0 1.6 0.00 0.00 0.00 96 1014.0
20260905111515 22 209 0.0 1.6 0.00 0.00 0.00 96 1014.0
20260905110335 22 210 0.0 1.6 0.00 0.00 0.00 96 1014.0
20260905105115 22 209 1.6 3.2 0.00 0.00 0.00 95 1013.8
20260905103915 22 209 1.6 3.2 0.00 0.00 0.00 95 1013.8
20260905102715 23 210 0.0 1.6 0.00 0.00 0.00 95 1013.6
20260905101515 23 209 0.0 1.6 0.00 0.00 0.00 95 1013.7
20260905100315 23 209 0.0 3.2 0.00 0.00 0.00 96 1013.5
20260905095115 23 209 1.6 3.2 0.00 0.00 0.00 96 1013.6